Location: Archamps
(46.1365°N, 6.1329°E)
Time: 06:21:37
(UTC+00:00)

Lacrosse 5 - Visible Passes

Search period start: 24 September 2023 00:00
Search period end: 04 October 2023 00:00
Orbit: 714 x 724 km, 57.0° (Epoch: 09 March)

Date Brightness Start Highest point End Pass type
(mag) Time Alt. Az. Time Alt. Az. Time Alt. Az.
24 Sep 3.5 18:38:45 10° WNW 18:43:13 30° NNW 18:47:43 10° NE visible
24 Sep 3.6 20:23:18 10° NW 20:27:30 25° N 20:28:04 24° NNE visible
24 Sep 4.7 22:06:35 10° NW 22:07:15 13° NW 22:07:15 13° NW visible
25 Sep 3.7 19:29:44 10° NW 19:33:52 24° N 19:36:38 16° NE visible
25 Sep 4.0 21:13:25 10° NW 21:15:50 24° NNW 21:15:50 24° NNW visible
26 Sep 3.6 18:36:00 10° WNW 18:40:15 26° N 18:44:31 10° NE visible
26 Sep 3.4 20:20:10 10° NW 20:24:24 28° N 20:24:24 28° N visible
26 Sep 4.8 22:03:11 10° NW 22:03:35 12° NW 22:03:35 12° NW visible
27 Sep 3.6 19:26:46 10° NW 19:30:58 25° N 19:32:59 19° NE visible
27 Sep 4.0 21:10:03 10° NW 21:12:11 24° NNW 21:12:11 24° NNW visible
28 Sep 3.6 18:33:11 10° NW 18:37:19 24° N 18:41:28 10° NE visible
28 Sep 3.2 20:16:53 10° NW 20:20:47 32° N 20:20:47 32° N visible
28 Sep 4.9 21:59:49 10° NW 21:59:58 11° NW 21:59:58 11° NW visible
29 Sep 3.6 17:39:27 10° WNW 17:43:42 26° N 17:47:58 10° NE visible
29 Sep 3.3 19:23:38 10° NW 19:28:01 28° NNE 19:29:24 24° NE visible
29 Sep 4.0 21:06:39 10° NW 21:08:35 23° NW 21:08:35 23° NW visible
30 Sep 3.5 18:30:13 10° NW 18:34:25 25° N 18:38:02 12° ENE visible
30 Sep 3.0 20:13:30 10° NW 20:17:14 38° N 20:17:14 38° N visible
01 Oct 2.9 19:20:20 10° NW 19:25:00 34° NNE 19:25:53 32° NE visible
01 Oct 4.1 21:03:16 10° NW 21:05:05 22° NW 21:05:05 22° NW visible
02 Oct 3.3 18:27:05 10° NW 18:31:27 27° NNE 18:34:34 16° ENE visible
02 Oct 2.8 20:10:06 10° NW 20:13:46 45° NNW 20:13:46 45° NNW visible
03 Oct 2.4 19:16:58 10° NW 19:21:53 45° NNE 19:22:30 43° NE visible
03 Oct 4.2 21:00:02 10° WNW 21:01:41 20° WNW 21:01:41 20° WNW visible
